This is the latest recevied weather packets stored in our database for station/object W5ADC. If no packets are shown the sender has not sent any weather packets the latest 10 day(s).
| Time | Temp. | Humidity | Pressure | Rain* | Wind** | Luminosity | Snow |
|---|---|---|---|---|---|---|---|
| 1787783496 | 38.89° C | 35% | 1008.3 hPa | 0 mm | - | 280 W/m² | - |
| 1787783191 | 38.89° C | 34% | 1008.4 hPa | 0 mm | - | 293 W/m² | - |
| 1787782886 | 38.89° C | 34% | 1008.6 hPa | 0 mm | - | 315 W/m² | - |
| 1787782585 | 38.33° C | 34% | 1008.7 hPa | 0 mm | - | 330 W/m² | - |
| 1787782281 | 38.33° C | 35% | 1008.6 hPa | 0 mm | - | 338 W/m² | - |
| 1787781982 | 38.33° C | 36% | 1008.7 hPa | 0 mm | - | 355 W/m² | - |
| 1787781672 | 37.78° C | 36% | 1008.9 hPa | 0 mm | - | 376 W/m² | - |
| 1787781369 | 37.78° C | 37% | 1009 hPa | 0 mm | - | 391 W/m² | - |
| 1787781068 | 37.78° C | 37% | 1009.1 hPa | 0 mm | - | 409 W/m² | - |
| 1787780767 | 38.33° C | 37% | 1009.1 hPa | 0 mm | - | 423 W/m² | - |
| 1787780461 | 37.78° C | 38% | 1009.2 hPa | 0 mm | - | 442 W/m² | - |
| 1787780158 | 37.78° C | 38% | 1009.3 hPa | 0 mm | - | 460 W/m² | - |
| 1787779853 | 37.78° C | 39% | 1009.3 hPa | 0 mm | - | 467 W/m² | - |
| 1787779552 | 38.33° C | 39% | 1009.3 hPa | 0 mm | - | 493 W/m² | - |
| 1787779247 | 37.78° C | 40% | 1009.5 hPa | 0 mm | - | 508 W/m² | - |
| 1787778941 | 37.78° C | 40% | 1009.3 hPa | 0 mm | - | 525 W/m² | - |
| 1787778637 | 37.78° C | 41% | 1009.4 hPa | 0 mm | - | 548 W/m² | - |
| 1787778332 | 37.22° C | 42% | 1009.6 hPa | 0 mm | - | 576 W/m² | - |
| 1787778029 | 36.67° C | 42% | 1009.6 hPa | 0 mm | - | 625 W/m² | - |
| 1787777722 | 37.22° C | 42% | 1009.8 hPa | 0 mm | - | 701 W/m² | - |
| 1787777419 | 36.11° C | 44% | 1009.8 hPa | 0 mm | - | 770 W/m² | - |
| 1787777119 | 36.11° C | 46% | 1010 hPa | 0 mm | - | 303 W/m² | - |
| 1787776817 | 35.56° C | 47% | 1010 hPa | 0 mm | - | 324 W/m² | - |
| 1787776516 | 35.56° C | 47% | 1010.2 hPa | 0 mm | - | 332 W/m² | - |
| 1787776215 | 35.56° C | 49% | 1010.3 hPa | 0 mm | - | 310 W/m² | - |
* Rain latest hour (hover to see other rain measurements)
** Current wind speed in m/s (hover to see current wind gust speed)